Flag for Germany Weather past 2 weeks in Stralsund, Mecklenburg-Western Pomerania, Germany

Now
38 °F

Light rain. Low clouds.


Feels Like: 34 °F
Forecast: 34 / 38 °F
Wind: 6 mph from Northwest

Location: Greifswald

Current Time: Jan 27, 2015 at 2:29:35 PM

Latest Report: Jan 27, 2015 at 2:00 PM


Visibility: 19 mi

Pressure: 29.87 "Hg

Humidity: 88%

Dew point: 35 °F

Location of StralsundLocation

Historic Weather in Stralsund — Graph

°F

Stralsund temperature yesterday

Maximum temperature yesterday: 38 °F (at 3:00 PM)
Minimum temperature yesterday: 35 °F (at 12:00 AM)
Average temperature yesterday: 36 °F

Past Weeks' High & Low Weather Summary

 TemperatureHumidityPressure
High49 °F (Jan 13, 1:00 PM)100% (Jan 21, 12:00 AM)30.31 "Hg (Jan 21, 12:00 AM)
Low26 °F (Jan 23, 3:00 AM)64% (Jan 16, 1:00 PM)29.44 "Hg (Jan 15, 8:00 PM)
Average36 °F89%29.92 "Hg
* Reported Jan 12 1:00 PM — Jan 27 1:00 PM, Stralsund, Weather by CustomWeather, © 2014

Note: Actual official high and low records may vary slightly from our data, if they occured in-between our weather recording intervals... More about our weather records

Advertising

Stralsund weather history for previous 24 hours

 ConditionsComfort  
Time TempWeatherWind HumidityBarometerVisibility
1:00 PM
Jan 27
36 °FLight rain. Low clouds.6 mph93%29.86 "Hg17 mi
12:00 PM38 °FLight rain. Overcast.6 mph91%29.85 "Hg6 mi
11:00 AM38 °FSprinkles. Overcast.6 mph93%29.84 "Hg5 mi
10:00 AM38 °FOvercast.6 mph85%29.83 "Hg19 mi
9:00 AM38 °FOvercast.6 mph83%29.82 "Hg25 mi
8:00 AM38 °FOvercast.6 mph85%29.79 "Hg25 mi
7:00 AM38 °FOvercast.5 mph85%29.79 "Hg28 mi
6:00 AM38 °FOvercast.5 mph85%29.78 "Hg28 mi
5:00 AM38 °FOvercast.5 mph84%29.78 "Hg25 mi
3:00 AM39 °FOvercast.6 mph89%29.77 "Hg19 mi
2:00 AM39 °FOvercast.7 mph91%29.76 "Hg16 mi
1:00 AM39 °FLight rain. Overcast.6 mph95%29.75 "Hg6 mi
12:00 AM39 °FLight rain. Overcast.6 mph94%29.75 "Hg7 mi
11:00 PM
Jan 26
38 °FLight rain. Low clouds.3 mph97%29.75 "Hg6 mi
9:00 PM37 °FLight rain. Low clouds.5 mph95%29.79 "Hg7 mi
8:00 PM36 °FDrizzle. Low clouds.6 mph96%29.81 "Hg2 mi
7:00 PM36 °FLight rain. Overcast.6 mph95%29.84 "Hg2 mi
6:00 PM37 °FLight rain. Low clouds.6 mph94%29.87 "Hg3 mi
5:00 PM37 °FLight rain. Low clouds.6 mph94%29.89 "Hg2 mi
3:00 PM38 °FOvercast.6 mph86%29.95 "Hg9 mi
2:00 PM38 °FOvercast.5 mph87%29.98 "Hg7 mi
Weather by CustomWeather, © 2014

See weather overviewHow to use our weather pages